Nashua, NH

1:30 PM EST on November 17, 2017 (GMT -0500)
Boire

Weather History for KASH - November, 2013

Change the Weather History Date:

Tuesday, November 12, 2013

  Actual Average Record
Temperature  
Mean Temperature 36 °F -  
Max Temperature 47 °F 49 °F 66 °F (2012)
Min Temperature 25 °F 30 °F 11 °F (1976)
Degree Days  
Heating Degree Days 29    
Moisture  
Dew Point 22 °F    
Average Humidity 62    
Maximum Humidity 87    
Minimum Humidity 44    
Precipitation  
Precipitation 0.03 in - - ()
Sea Level Pressure  
Sea Level Pressure 30.67 in    
Wind  
Wind Speed 9 mph (NW)    
Max Wind Speed 20 mph    
Max Gust Speed 25 mph    
Visibility 9 miles    
Events Rain , Snow    
Averages and records for this station are not official NWS values.
T = Trace of Precipitation, MM = Missing Value Source: NWS Daily Summary

Daily Weather History Graph

Daily Weather History Graph

Search for Another Location

Airport or City:

Trip Planner

Search our weather history database for the weather conditions in past years. The results will help you decide how hot, cold, wet, or windy it might be!

Date:

Astronomy

Nov. 12, 2013 Rise Set
Actual Time 6:34 AM EST 4:25 PM EST
Civil Twilight 6:04 AM EST 4:55 PM EST
Nautical Twilight 5:30 AM EST 5:29 PM EST
Astronomical Twilight 4:56 AM EST 6:03 PM EST
Moon 1:44 PM EST (11/12) 1:13 AM EST (11/12)
Length of Visible Light 10h 51m
Length of Day
9h 51m
Waxing Gibbous, 76% of the Moon is Illuminated
Nov 12
Waxing Gibbous
Nov 17
Full
Nov 25
Last Quarter
Dec 2
New
Dec 9
First Quarter

Hourly Weather History & Observations

Time (EST) Temp. Windchill Dew Point Humidity Pressure Visibility Wind Dir Wind Speed Gust Speed Precip Events Conditions
12:51 AM 46.9 °F - 28.0 °F 48% 30.62 in 10.0 mi Calm Calm - N/A   Clear
1:51 AM 47.8 °F - 29.1 °F 48% 30.63 in 10.0 mi SW 11.5 mph 20.7 mph N/A   Clear
2:51 AM 45.9 °F 43.6 °F 32.0 °F 58% 30.63 in 10.0 mi Variable 4.6 mph - 0.00 in   Mostly Cloudy
3:51 AM 43.9 °F - 34.0 °F 68% 30.63 in 10.0 mi Calm Calm - 0.00 in Rain Light Rain
4:51 AM 43.9 °F 41.3 °F 34.0 °F 68% 30.66 in 10.0 mi West 4.6 mph - 0.00 in Rain Light Rain
5:09 AM 39.2 °F 30.8 °F 35.6 °F 87% 29.94 in 5.0 mi NNW 15.0 mph - 0.01 in Rain Light Rain
5:28 AM 37.4 °F 29.3 °F 33.8 °F 87% 29.95 in 7.0 mi North 12.7 mph - 0.02 in Rain Light Rain
5:51 AM 36.0 °F 27.1 °F 32.0 °F 86% 30.72 in 7.0 mi North 13.8 mph 20.7 mph 0.03 in Rain Light Rain
6:21 AM 33.8 °F 24.8 °F 30.2 °F 87% 29.98 in 6.0 mi NNW 12.7 mph - 0.00 in Snow Light Snow
6:43 AM 33.8 °F 22.5 °F 30.2 °F 87% 30.00 in 6.0 mi NW 19.6 mph 23.0 mph 0.00 in Snow Light Snow
6:51 AM 34.0 °F 24.2 °F 30.0 °F 85% 30.75 in 8.0 mi NW 15.0 mph 21.9 mph 0.00 in Snow Light Snow
7:00 AM 33.8 °F 24.3 °F 28.4 °F 81% 30.00 in 10.0 mi NW 13.8 mph 24.2 mph 0.00 in Snow Light Snow
7:51 AM 34.9 °F 26.2 °F 24.1 °F 65% 30.78 in 10.0 mi NNW 12.7 mph - 0.00 in   Partly Cloudy
8:51 AM 34.0 °F 25.5 °F 21.0 °F 59% 30.81 in 10.0 mi NW 11.5 mph - N/A   Clear
9:51 AM 34.0 °F 23.0 °F 15.1 °F 46% 30.82 in 10.0 mi NNW 18.4 mph 24.2 mph N/A   Clear
10:51 AM 32.9 °F 22.0 °F 16.2 °F 50% 30.83 in 10.0 mi North 17.3 mph - N/A   Clear
11:51 AM 32.9 °F 22.8 °F 15.1 °F 48% 30.82 in 10.0 mi NNW 15.0 mph 25.3 mph N/A   Partly Cloudy
12:51 PM 32.9 °F 21.6 °F 15.1 °F 48% 30.83 in 10.0 mi North 18.4 mph 23.0 mph N/A   Scattered Clouds
1:51 PM 32.9 °F 22.0 °F 14.0 °F 46% 30.84 in 10.0 mi NNW 17.3 mph 24.2 mph N/A   Clear
2:51 PM 32.9 °F 22.4 °F 14.0 °F 46% 30.85 in 10.0 mi NNW 16.1 mph 20.7 mph N/A   Scattered Clouds
3:51 PM 34.0 °F 26.6 °F 14.0 °F 44% 30.87 in 10.0 mi NNW 9.2 mph 13.8 mph N/A   Partly Cloudy
4:51 PM 32.9 °F 25.9 °F 14.0 °F 46% 30.89 in 10.0 mi NNW 8.1 mph - N/A   Clear
5:51 PM 28.0 °F - 15.1 °F 58% 30.92 in 10.0 mi Calm Calm - N/A   Clear
6:51 PM 27.1 °F - 15.1 °F 60% 30.93 in 10.0 mi Calm Calm - N/A   Clear
7:51 PM 28.0 °F 22.8 °F 15.1 °F 58% 30.93 in 10.0 mi WNW 4.6 mph - N/A   Clear
8:51 PM 25.2 °F - 17.1 °F 71% 30.95 in 10.0 mi Calm Calm - N/A   Clear
9:51 PM 29.1 °F 20.6 °F 13.1 °F 51% 30.95 in 10.0 mi NW 9.2 mph - N/A   Clear
10:51 PM 28.0 °F 20.8 °F 13.1 °F 54% 30.95 in 10.0 mi NW 6.9 mph - N/A   Clear
11:51 PM 27.1 °F 20.7 °F 13.1 °F 56% 30.95 in 10.0 mi WNW 5.8 mph - N/A   Clear